CZ-4C DEB (44208 NORAD) Tracking and Keplerian Element Data

This shows tracking and keplerian element data for the satellite.

Feedback or suggestion? Click here.




ElementValue
Catalog44208
NameCZ-4C DEB
Epoch Orbit432
Epoch Day148.47046312
Epoch Year2019
RAAN155.6134
Inclination97.4526
Eccentricity0.001279
Argument of Perigee161.4352
Mean Anonmoly198.7351
Mean Motion15.18224221
Decay Rate1.547E-05
L11 44208U 19024B 19148.47046312 .00001547 00000-0 78798-4 0 9994
L22 44208 97.4526 155.6134 0012790 161.4352 198.7351 15.18224221 4320

Live tracking and technical data element details for CZ-4C DEB (NORAD 44208). CZ-4C DEB can be tracked NOW for your location showing map with azimuth and elevation plus other details from your city location.

Track the satellite on the map from your city or location and see movement details for azimuth, elevation, latitude, longitude, range, height, and movement on the map or in text.







IsCatalogInMostPopularTable: catalog: 44208, numindb: 13
Update: records affected: 1



GetName: 44208 CZ-4C DEB

Hit Count: updated at: Mon, 22 Jul 2019 03:41:14 GMT